Total_Precipitation_Accumulation
0.00 0.00 0.00 0.00 0.00 0.00 0.00 0.00 0.00 0.00 0.00 0.00 0.00 0.00 0.00 0.00 0.00 0.00 0.00 0.00 0.00 0.00 0.01 0.01 0.02 0.04 0.06 0.09 0.11 0.13 0.13 0.13 0.13 0.13 0.14 0.15 0.15 0.16 0.16 0.17 0.18 0.19 0.20
0.00 0.00 0.00 0.00 0.00 0.00 0.00 0.00 0.00 0.00 0.00 0.00 0.00 0.00 0.00 0.00 0.00 0.00 0.00 0.00 0.00 0.00 0.00 0.00 0.01 0.03 0.05 0.07 0.10 0.12 0.13 0.13 0.13 0.14 0.15 0.16 0.17 0.18 0.19 0.20 0.21 0.22 0.23
0.00 0.00 0.00 0.00 0.00 0.00 0.00 0.00 0.00 0.00 0.00 0.00 0.00 0.00 0.00 0.00 0.00 0.00 0.00 0.00 0.00 0.00 0.00 0.00 0.01 0.02 0.03 0.04 0.06 0.08 0.10 0.13 0.14 0.16 0.17 0.19 0.20 0.21 0.23 0.25 0.26 0.27 0.29
0.01 0.00 0.00 0.00 0.00 0.00 0.00 0.00 0.00 0.00 0.00 0.00 0.00 0.00 0.00 0.00 0.00 0.00 0.00 0.00 0.00 0.00 0.00 0.00 0.01 0.01 0.01 0.02 0.03 0.05 0.08 0.10 0.12 0.13 0.15 0.17 0.19 0.22 0.25 0.29 0.32 0.35 0.38
0.02 0.01 0.01 0.00 0.00 0.00 0.00 0.00 0.00 0.00 0.00 0.00 0.00 0.00 0.00 0.00 0.00 0.00 0.00 0.00 0.00 0.00 0.00 0.00 0.00 0.00 0.01 0.01 0.01 0.03 0.06 0.08 0.10 0.12 0.13 0.15 0.17 0.20 0.24 0.29 0.34 0.39 0.47
0.04 0.02 0.01 0.01 0.00 0.00 0.00 0.00 0.00 0.00 0.00 0.00 0.00 0.00 0.00 0.00 0.00 0.00 0.00 0.00 0.00 0.00 0.00 0.00 0.00 0.00 0.00 0.01 0.02 0.02 0.04 0.06 0.08 0.10 0.12 0.14 0.16 0.19 0.23 0.28 0.34 0.42 0.53
0.10 0.05 0.03 0.02 0.01 0.00 0.00 0.00 0.00 0.00 0.00 0.00 0.01 0.01 0.00 0.00 0.00 0.00 0.00 0.00 0.00 0.00 0.00 0.00 0.00 0.01 0.01 0.01 0.02 0.02 0.02 0.04 0.06 0.09 0.12 0.14 0.17 0.21 0.26 0.31 0.38 0.45 0.54
0.16 0.12 0.08 0.05 0.04 0.03 0.02 0.02 0.02 0.02 0.01 0.01 0.02 0.03 0.02 0.00 0.00 0.00 0.00 0.00 0.00 0.00 0.00 0.00 0.01 0.01 0.01 0.02 0.01 0.01 0.01 0.02 0.04 0.09 0.14 0.17 0.20 0.25 0.30 0.37 0.46 0.52 0.58
0.21 0.18 0.16 0.13 0.11 0.09 0.07 0.07 0.06 0.05 0.05 0.04 0.04 0.06 0.06 0.04 0.02 0.01 0.01 0.01 0.01 0.02 0.02 0.02 0.02 0.01 0.01 0.01 0.01 0.01 0.01 0.02 0.03 0.07 0.14 0.21 0.27 0.33 0.41 0.48 0.53 0.59 0.65
0.22 0.23 0.22 0.19 0.17 0.15 0.13 0.14 0.13 0.12 0.11 0.10 0.08 0.08 0.09 0.10 0.11 0.08 0.04 0.03 0.03 0.03 0.02 0.02 0.02 0.02 0.01 0.02 0.02 0.02 0.02 0.04 0.05 0.07 0.14 0.25 0.34 0.45 0.56 0.64 0.70 0.76 0.79
0.19 0.21 0.21 0.22 0.20 0.20 0.21 0.22 0.20 0.20 0.19 0.18 0.16 0.15 0.15 0.15 0.16 0.17 0.12 0.06 0.06 0.05 0.04 0.03 0.03 0.03 0.03 0.03 0.03 0.03 0.04 0.07 0.09 0.11 0.20 0.31 0.43 0.56 0.71 0.84 0.92 0.95 0.95
0.18 0.18 0.20 0.22 0.23 0.24 0.25 0.27 0.28 0.27 0.26 0.25 0.23 0.23 0.25 0.25 0.23 0.24 0.23 0.16 0.13 0.10 0.09 0.08 0.07 0.06 0.05 0.06 0.06 0.05 0.06 0.07 0.10 0.13 0.22 0.37 0.49 0.61 0.75 0.91 1.01 1.06 1.09
0.15 0.18 0.21 0.24 0.25 0.27 0.30 0.31 0.30 0.28 0.28 0.27 0.26 0.26 0.28 0.29 0.29 0.32 0.35 0.28 0.23 0.17 0.15 0.14 0.14 0.13 0.12 0.12 0.10 0.10 0.08 0.07 0.09 0.11 0.18 0.35 0.46 0.51 0.57 0.68 0.87 1.02 1.14
0.20 0.24 0.25 0.25 0.25 0.26 0.27 0.28 0.28 0.28 0.28 0.30 0.30 0.31 0.32 0.31 0.34 0.37 0.41 0.45 0.41 0.31 0.24 0.20 0.19 0.20 0.19 0.17 0.14 0.14 0.10 0.09 0.09 0.12 0.17 0.25 0.32 0.35 0.41 0.50 0.64 0.80 0.94
0.17 0.19 0.20 0.22 0.22 0.22 0.22 0.23 0.23 0.24 0.25 0.27 0.30 0.33 0.35 0.34 0.36 0.40 0.44 0.52 0.58 0.53 0.37 0.28 0.25 0.23 0.22 0.20 0.18 0.17 0.15 0.12 0.13 0.15 0.16 0.18 0.21 0.26 0.30 0.37 0.46 0.57 0.67
0.12 0.14 0.14 0.15 0.16 0.16 0.16 0.17 0.18 0.19 0.22 0.23 0.26 0.29 0.32 0.33 0.37 0.41 0.46 0.50 0.57 0.62 0.51 0.33 0.26 0.24 0.24 0.22 0.18 0.17 0.14 0.14 0.14 0.15 0.16 0.18 0.21 0.23 0.26 0.30 0.35 0.42 0.50
0.09 0.10 0.10 0.11 0.12 0.12 0.12 0.13 0.15 0.16 0.19 0.23 0.27 0.31 0.35 0.38 0.41 0.43 0.45 0.48 0.52 0.55 0.52 0.34 0.25 0.24 0.22 0.18 0.16 0.15 0.13 0.13 0.11 0.12 0.15 0.18 0.21 0.24 0.28 0.31 0.33 0.37 0.42
0.07 0.07 0.08 0.08 0.08 0.08 0.09 0.10 0.13 0.15 0.19 0.23 0.26 0.30 0.35 0.38 0.41 0.43 0.44 0.44 0.43 0.43 0.47 0.39 0.24 0.22 0.19 0.19 0.20 0.19 0.16 0.15 0.13 0.13 0.16 0.20 0.24 0.26 0.28 0.31 0.36 0.41 0.45
0.05 0.05 0.06 0.07 0.08 0.08 0.08 0.09 0.11 0.14 0.17 0.19 0.21 0.25 0.28 0.32 0.32 0.31 0.29 0.29 0.30 0.31 0.37 0.38 0.27 0.21 0.18 0.17 0.19 0.19 0.18 0.16 0.15 0.16 0.20 0.22 0.24 0.27 0.31 0.35 0.39 0.43 0.45
0.05 0.05 0.05 0.05 0.07 0.08 0.11 0.13 0.16 0.18 0.19 0.20 0.21 0.23 0.23 0.22 0.20 0.18 0.19 0.20 0.24 0.28 0.30 0.35 0.33 0.26 0.23 0.20 0.21 0.18 0.17 0.15 0.16 0.17 0.21 0.25 0.29 0.33 0.35 0.38 0.41 0.44 0.46
0.06 0.07 0.08 0.09 0.10 0.11 0.14 0.16 0.18 0.20 0.21 0.21 0.21 0.19 0.17 0.17 0.15 0.15 0.17 0.21 0.27 0.34 0.41 0.48 0.45 0.38 0.32 0.26 0.22 0.22 0.27 0.27 0.26 0.23 0.24 0.27 0.32 0.37 0.40 0.42 0.45 0.46 0.48
0.09 0.11 0.13 0.16 0.18 0.19 0.24 0.22 0.19 0.20 0.22 0.21 0.19 0.17 0.16 0.15 0.13 0.13 0.16 0.23 0.37 0.50 0.60 0.63 0.60 0.51 0.37 0.32 0.32 0.38 0.46 0.55 0.48 0.29 0.32 0.35 0.36 0.43 0.43 0.45 0.51 0.54 0.55
0.20 0.20 0.20 0.22 0.25 0.29 0.30 0.24 0.20 0.17 0.17 0.16 0.14 0.13 0.11 0.09 0.09 0.08 0.10 0.21 0.31 0.41 0.49 0.52 0.50 0.39 0.35 0.35 0.48 0.63 0.67 0.71 0.58 0.37 0.43 0.49 0.41 0.43 0.44 0.48 0.57 0.57 0.54
0.27 0.28 0.28 0.25 0.24 0.25 0.23 0.18 0.15 0.13 0.14 0.13 0.10 0.08 0.07 0.06 0.06 0.10 0.17 0.25 0.21 0.17 0.22 0.28 0.31 0.33 0.37 0.44 0.61 0.84 0.92 0.90 0.71 0.53 0.50 0.55 0.41 0.38 0.40 0.44 0.51 0.50 0.46
0.33 0.30 0.27 0.26 0.24 0.23 0.19 0.14 0.11 0.10 0.09 0.08 0.06 0.06 0.06 0.05 0.07 0.19 0.31 0.34 0.22 0.13 0.15 0.24 0.32 0.36 0.37 0.40 0.48 0.74 0.93 1.00 0.84 0.55 0.47 0.55 0.51 0.47 0.45 0.42 0.44 0.48 0.46
0.30 0.28 0.24 0.20 0.18 0.17 0.15 0.12 0.09 0.08 0.07 0.06 0.05 0.04 0.05 0.06 0.13 0.26 0.31 0.33 0.26 0.18 0.21 0.24 0.26 0.27 0.26 0.30 0.39 0.58 1.01 1.40 1.19 0.82 0.50 0.60 0.62 0.66 0.77 0.48 0.42 0.45 0.45